Home > Weather > Prince Rupert > Past weeks

Flag for Canada Past Weather in Prince Rupert, British Columbia, Canada — Yesterday and Last 2 Weeks

Now
61 °F

Overcast.


Feels Like: 61 °F
Forecast: 54 / 63 °F
Wind: 10 mph from Northwest

Location: Prince Rupert

Current Time: Jul 30, 2016 at 6:53:45 PM

Latest Report: Jul 30, 2016 at 6:00 PM


Visibility: 9 mi

Pressure: 30.09 "Hg

Humidity: 83%

Dew Point: 55 °F

Location of Prince RupertLocation

Past Weather in Prince Rupert — Graph

°F

Prince Rupert Temperature Yesterday

Maximum temperature yesterday: 63 °F (at 1:00 PM)
Minimum temperature yesterday: 55 °F (at 5:00 AM)
Average temperature yesterday: 59 °F

High & Low Weather Summary for the Past Weeks

 TemperatureHumidityPressure
High68 °F (Jul 16, 12:00 PM)100% (Jul 18, 7:00 AM)30.25 "Hg (Jul 18, 7:00 AM)
Low52 °F (Jul 26, 3:00 AM)56% (Jul 25, 7:00 PM)29.90 "Hg (Jul 18, 8:57 AM)
Average59 °F86%30.10 "Hg
* Reported Jul 15 5:00 PM — Jul 30 5:00 PM, Prince Rupert, Weather by CustomWeather, © 2016

Note: Actual official high and low records may vary slightly from our data, if they occured in-between our weather recording intervals... More about our weather records

Advertising

Prince Rupert Weather History for the Previous 24 Hours

Scroll right to see more
 ConditionsComfort  
Time TempWeatherWind HumidityBarometerVisibility
5:00 PM
Sat, Jul 30
63 °FOvercast.8 mph77%30.10 "Hg9 mi
4:00 PM63 °FPartly sunny.9 mph73%30.10 "Hg9 mi
3:00 PM64 °FSunny.7 mph73%30.10 "Hg9 mi
2:00 PM61 °FOvercast.7 mph83%30.10 "Hg9 mi
1:00 PM59 °FOvercast.6 mph88%30.11 "Hg9 mi
12:00 PM63 °FPartly sunny.7 mph77%30.11 "Hg9 mi
11:00 AM61 °FBroken clouds.6 mph77%30.11 "Hg9 mi
10:00 AM59 °FCloudy.5 mph82%30.11 "Hg9 mi
9:00 AM57 °FMore clouds than sun.3 mph88%30.11 "Hg9 mi
8:00 AM57 °FMore clouds than sun.5 mph88%30.11 "Hg9 mi
7:00 AM55 °FPartly sunny.3 mph94%30.11 "Hg9 mi
6:00 AM55 °FOvercast.5 mph94%30.11 "Hg9 mi
5:00 AM55 °FOvercast.5 mph94%30.12 "Hg9 mi
4:00 AM57 °FMostly cloudy.3 mph88%30.13 "Hg9 mi
3:58 AM57 °FMostly cloudy.5 mph88%30.13 "Hg9 mi
3:00 AM57 °FOvercast.7 mph88%30.14 "Hg9 mi
2:00 AM57 °FLight rain. Overcast.5 mph88%30.15 "Hg9 mi
1:52 AM57 °FLight rain. Overcast.5 mph88%30.15 "Hg9 mi
1:00 AM57 °FOvercast.7 mph88%30.16 "Hg9 mi
12:00 AM57 °FMostly cloudy.7 mph82%30.16 "Hg9 mi
11:00 PM
Fri, Jul 29
57 °FOvercast.6 mph88%30.17 "Hg9 mi
10:00 PM57 °FMostly cloudy.6 mph88%30.18 "Hg9 mi
9:00 PM57 °FMostly cloudy.6 mph88%30.19 "Hg9 mi
8:00 PM59 °FMore clouds than sun.8 mph82%30.19 "Hg9 mi
7:00 PM59 °FOvercast.10 mph82%30.20 "Hg9 mi
6:00 PM61 °FOvercast.9 mph83%30.20 "Hg9 mi
Weather by CustomWeather, © 2016

See weather overviewHow to use our weather pages